| time (UTC) | temp F | wind direction | speed knots | gust knots | rain 1hr in | rain 24hr in | rain mn in | humidity % | barometer mb |
| 20260504202404 | 67 | 221 | 5.2 | 11.3 | 0.00 | 0.00 | 0.00 | 47 | 1006.5 |
| 20260504201904 | 67 | 260 | 6.1 | 13.9 | 0.00 | 0.00 | 0.00 | 46 | 1006.6 |
| 20260504201405 | 68 | 216 | 7.8 | 14.8 | 0.00 | 0.00 | 0.00 | 46 | 1006.7 |
| 20260504200903 | 67 | 269 | 5.2 | 7.8 | 0.00 | 0.00 | 0.00 | 47 | 1006.8 |
| 20260504200404 | 67 | 217 | 3.5 | 14.8 | 0.00 | 0.00 | 0.00 | 47 | 1006.7 |
| 20260504195904 | 67 | 326 | 6.1 | 12.2 | 0.00 | 0.00 | 0.00 | 46 | 1006.7 |
| 20260504195404 | 66 | 240 | 2.6 | 7.8 | 0.00 | 0.00 | 0.00 | 47 | 1006.8 |
| 20260504194904 | 67 | 334 | 6.1 | 13.0 | 0.00 | 0.00 | 0.00 | 46 | 1006.9 |
| 20260504194404 | 67 | 282 | 5.2 | 13.9 | 0.00 | 0.00 | 0.00 | 47 | 1006.9 |
| 20260504193904 | 66 | 332 | 5.2 | 11.3 | 0.00 | 0.00 | 0.00 | 47 | 1007.1 |
| 20260504193404 | 66 | 234 | 6.1 | 11.3 | 0.00 | 0.00 | 0.00 | 48 | 1007.1 |
| 20260504192905 | 66 | 218 | 8.7 | 13.0 | 0.00 | 0.00 | 0.00 | 48 | 1007.0 |
| 20260504191905 | 66 | 350 | 7.0 | 14.8 | 0.00 | 0.00 | 0.00 | 48 | 1007.2 |
| 20260504191405 | 65 | 251 | 5.2 | 13.9 | 0.00 | 0.00 | 0.00 | 48 | 1007.2 |
| 20260504190906 | 65 | 239 | 6.1 | 13.9 | 0.00 | 0.00 | 0.00 | 49 | 1007.4 |
| 20260504190405 | 65 | 236 | 9.6 | 14.8 | 0.00 | 0.00 | 0.00 | 48 | 1007.3 |
| 20260504185905 | 65 | 268 | 7.8 | 13.9 | 0.00 | 0.00 | 0.00 | 48 | 1007.3 |
| 20260504185406 | 65 | 258 | 4.3 | 13.0 | 0.00 | 0.00 | 0.00 | 49 | 1007.4 |
| 20260504184905 | 65 | 256 | 6.1 | 13.0 | 0.00 | 0.00 | 0.00 | 49 | 1007.6 |
| 20260504184405 | 65 | 301 | 4.3 | 13.0 | 0.00 | 0.00 | 0.00 | 48 | 1007.6 |
| 20260504183905 | 65 | 260 | 6.1 | 13.9 | 0.00 | 0.00 | 0.00 | 48 | 1007.7 |
| 20260504182905 | 64 | 262 | 7.8 | 13.9 | 0.00 | 0.00 | 0.00 | 49 | 1007.8 |
| 20260504182405 | 65 | 270 | 4.3 | 12.2 | 0.00 | 0.00 | 0.00 | 49 | 1007.8 |
| 20260504181905 | 64 | 222 | 5.2 | 11.3 | 0.00 | 0.00 | 0.00 | 49 | 1007.9 |
| 20260504180905 | 64 | 254 | 7.8 | 12.2 | 0.00 | 0.00 | 0.00 | 48 | 1008.0 |
| 20260504180405 | 64 | 229 | 4.3 | 17.4 | 0.00 | 0.00 | 0.00 | 48 | 1008.0 |
| 20260504175905 | 65 | 236 | 8.7 | 17.4 | 0.00 | 0.00 | 0.00 | 48 | 1008.0 |
| 20260504175405 | 64 | 253 | 6.1 | 12.2 | 0.00 | 0.00 | 0.00 | 48 | 1008.0 |
| 20260504174405 | 64 | 230 | 6.1 | 12.2 | 0.00 | 0.00 | 0.00 | 49 | 1008.2 |
| 20260504173905 | 64 | 258 | 5.2 | 13.0 | 0.00 | 0.00 | 0.00 | 48 | 1008.2 |
| 20260504172905 | 63 | 296 | 6.1 | 14.8 | 0.00 | 0.00 | 0.00 | 48 | 1008.5 |
| 20260504172405 | 63 | 270 | 7.0 | 13.0 | 0.00 | 0.00 | 0.00 | 48 | 1008.4 |
| 20260504171905 | 63 | 255 | 6.1 | 12.2 | 0.00 | 0.00 | 0.00 | 48 | 1008.3 |
| 20260504171406 | 63 | 213 | 7.0 | 11.3 | 0.00 | 0.00 | 0.00 | 49 | 1008.5 |
| 20260504170905 | 63 | 204 | 4.3 | 14.8 | 0.00 | 0.00 | 0.00 | 49 | 1008.5 |
| 20260504170405 | 62 | 208 | 6.1 | 15.6 | 0.00 | 0.00 | 0.00 | 49 | 1008.7 |
| 20260504160406 | 61 | 251 | 7.0 | 15.6 | 0.00 | 0.00 | 0.00 | 50 | 1009.3 |
| 20260504150905 | 58 | 290 | 7.8 | 17.4 | 0.00 | 0.00 | 0.00 | 50 | 1010.2 |
| 20260504140905 | 55 | 215 | 5.2 | 13.0 | 0.00 | 0.00 | 0.00 | 51 | 1010.3 |
| 20260504140405 | 55 | 234 | 7.8 | 13.9 | 0.00 | 0.00 | 0.00 | 50 | 1010.3 |
| 20260504130404 | 52 | 231 | 6.1 | 11.3 | 0.00 | 0.00 | 0.00 | 53 | 1010.5 |
| 20260504110405 | 48 | 220 | 6.1 | 10.4 | 0.00 | 0.00 | 0.00 | 58 | 1010.7 |
| 20260504100405 | 46 | 220 | 4.3 | 7.0 | 0.00 | 0.00 | 0.00 | 60 | 1010.8 |
| 20260504081905 | 47 | 252 | 5.2 | 10.4 | 0.00 | 0.00 | 0.00 | 59 | 1011.2 |
| 20260504081404 | 47 | 257 | 6.1 | 11.3 | 0.00 | 0.00 | 0.00 | 59 | 1011.2 |
| 20260504080905 | 47 | 258 | 5.2 | 10.4 | 0.00 | 0.00 | 0.00 | 59 | 1011.1 |
| 20260504080404 | 47 | 289 | 5.2 | 10.4 | 0.00 | 0.00 | 0.00 | 59 | 1011.2 |
| 20260504070405 | 48 | 235 | 4.3 | 6.1 | 0.00 | 0.00 | 0.00 | 58 | 1011.1 |
| 20260504045405 | 49 | 296 | 5.2 | 7.8 | 0.00 | 0.00 | 0.00 | 57 | 1011.4 |
| 20260504044905 | 49 | 286 | 3.5 | 10.4 | 0.00 | 0.00 | 0.00 | 57 | 1011.4 |
| 20260504044404 | 49 | 309 | 4.3 | 6.1 | 0.00 | 0.00 | 0.00 | 57 | 1011.4 |
| 20260504043404 | 49 | 288 | 3.5 | 7.0 | 0.00 | 0.00 | 0.00 | 57 | 1011.4 |
| 20260504042904 | 49 | 317 | 4.3 | 7.0 | 0.00 | 0.00 | 0.00 | 57 | 1011.3 |
| 20260504042405 | 49 | 322 | 4.3 | 7.0 | 0.00 | 0.00 | 0.00 | 57 | 1011.2 |
| 20260504041904 | 49 | 321 | 2.6 | 6.1 | 0.00 | 0.00 | 0.00 | 57 | 1011.2 |
| 20260504041404 | 49 | 296 | 4.3 | 8.7 | 0.00 | 0.00 | 0.00 | 57 | 1011.1 |
| 20260504040904 | 49 | 294 | 2.6 | 7.0 | 0.00 | 0.00 | 0.00 | 57 | 1011.1 |
| 20260504040405 | 49 | 328 | 3.5 | 7.8 | 0.00 | 0.00 | 0.00 | 57 | 1011.1 |
| 20260504035404 | 49 | 3 | 1.7 | 5.2 | 0.00 | 0.00 | 0.00 | 57 | 1011.1 |
| 20260504034904 | 49 | 278 | 3.5 | 7.0 | 0.00 | 0.00 | 0.00 | 57 | 1011.1 |
| 20260504034404 | 49 | 308 | 3.5 | 7.8 | 0.00 | 0.00 | 0.00 | 57 | 1011.1 |
| 20260504033907 | 49 | 302 | 3.5 | 7.0 | 0.00 | 0.00 | 0.00 | 57 | 1011.0 |
| 20260504033404 | 49 | 326 | 2.6 | 5.2 | 0.00 | 0.00 | 0.00 | 57 | 1011.0 |
| 20260504032904 | 49 | 311 | 3.5 | 6.1 | 0.00 | 0.00 | 0.00 | 57 | 1011.0 |
| 20260504032404 | 49 | 308 | 2.6 | 5.2 | 0.00 | 0.00 | 0.00 | 57 | 1011.1 |
| 20260504031904 | 49 | 321 | 2.6 | 6.1 | 0.00 | 0.00 | 0.00 | 56 | 1011.1 |
| 20260504031404 | 49 | 278 | 1.7 | 6.1 | 0.00 | 0.00 | 0.00 | 57 | 1011.1 |
| 20260504030904 | 49 | 327 | 3.5 | 7.8 | 0.00 | 0.00 | 0.00 | 56 | 1011.0 |
| 20260504025904 | 49 | 333 | 2.6 | 7.8 | 0.00 | 0.00 | 0.00 | 56 | 1011.1 |
| 20260504024904 | 49 | 330 | 1.7 | 5.2 | 0.00 | 0.00 | 0.00 | 56 | 1011.1 |
| 20260504024403 | 49 | 342 | 2.6 | 5.2 | 0.00 | 0.00 | 0.00 | 56 | 1011.1 |
| 20260504023904 | 49 | 263 | 2.6 | 6.1 | 0.00 | 0.00 | 0.00 | 56 | 1011.1 |
| 20260504023405 | 49 | 326 | 4.3 | 7.8 | 0.00 | 0.00 | 0.00 | 56 | 1011.1 |
| 20260504022404 | 50 | 328 | 3.5 | 6.1 | 0.00 | 0.00 | 0.00 | 55 | 1011.1 |
| 20260504021905 | 50 | 311 | 4.3 | 7.8 | 0.00 | 0.00 | 0.00 | 55 | 1011.2 |
| 20260504020904 | 50 | 295 | 2.6 | 7.0 | 0.00 | 0.00 | 0.00 | 55 | 1011.2 |
| 20260504020404 | 50 | 325 | 2.6 | 6.1 | 0.00 | 0.00 | 0.00 | 54 | 1011.2 |
| 20260504014404 | 50 | 287 | 3.5 | 10.4 | 0.00 | 0.00 | 0.00 | 54 | 1011.1 |
| 20260504013905 | 50 | 285 | 4.3 | 7.8 | 0.00 | 0.00 | 0.00 | 54 | 1011.1 |
| 20260504013404 | 50 | 267 | 2.6 | 7.0 | 0.00 | 0.00 | 0.00 | 54 | 1011.0 |
| 20260504012905 | 50 | 245 | 3.5 | 7.8 | 0.00 | 0.00 | 0.00 | 54 | 1011.0 |
| 20260504012404 | 50 | 282 | 2.6 | 6.1 | 0.00 | 0.00 | 0.00 | 53 | 1011.0 |
| 20260504011404 | 50 | 260 | 2.6 | 5.2 | 0.00 | 0.00 | 0.00 | 53 | 1010.9 |
| 20260504010404 | 51 | 316 | 3.5 | 7.0 | 0.00 | 0.00 | 0.00 | 53 | 1010.9 |
| 20260504005904 | 51 | 331 | 3.5 | 7.0 | 0.00 | 0.00 | 0.00 | 52 | 1010.9 |
| 20260504005405 | 51 | 310 | 4.3 | 7.0 | 0.00 | 0.00 | 0.00 | 52 | 1010.8 |
| 20260504004904 | 51 | 300 | 3.5 | 7.8 | 0.00 | 0.00 | 0.00 | 52 | 1010.7 |
| 20260504004404 | 51 | 342 | 4.3 | 8.7 | 0.00 | 0.00 | 0.00 | 52 | 1010.7 |
| 20260504003905 | 51 | 344 | 4.3 | 10.4 | 0.00 | 0.00 | 0.00 | 52 | 1010.7 |
| 20260504003404 | 51 | 322 | 4.3 | 7.8 | 0.00 | 0.00 | 0.00 | 51 | 1010.6 |
| 20260504002904 | 51 | 295 | 3.5 | 7.8 | 0.00 | 0.00 | 0.00 | 51 | 1010.5 |
| 20260504002404 | 51 | 323 | 3.5 | 6.1 | 0.00 | 0.00 | 0.00 | 51 | 1010.5 |
| 20260504001904 | 52 | 336 | 2.6 | 6.1 | 0.00 | 0.00 | 0.00 | 50 | 1010.4 |
| 20260504001403 | 52 | 281 | 3.5 | 7.0 | 0.00 | 0.00 | 0.00 | 50 | 1010.3 |
| 20260504000404 | 52 | 349 | 4.3 | 7.8 | 0.00 | 0.00 | 0.00 | 49 | 1010.3 |
| 20260503235904 | 52 | 310 | 3.5 | 6.1 | 0.00 | 0.00 | 0.00 | 49 | 1010.3 |
| 20260503235404 | 52 | 341 | 4.3 | 10.4 | 0.00 | 0.00 | 0.00 | 49 | 1010.2 |
| 20260503234904 | 53 | 349 | 4.3 | 10.4 | 0.00 | 0.00 | 0.00 | 49 | 1010.2 |
| 20260503234404 | 53 | 344 | 5.2 | 11.3 | 0.00 | 0.00 | 0.00 | 48 | 1010.2 |
| 20260503233904 | 53 | 317 | 3.5 | 11.3 | 0.00 | 0.00 | 0.00 | 48 | 1010.2 |
| 20260503233404 | 53 | 334 | 6.1 | 10.4 | 0.00 | 0.00 | 0.00 | 48 | 1010.0 |
| 20260503232904 | 53 | 351 | 6.1 | 10.4 | 0.00 | 0.00 | 0.00 | 48 | 1010.0 |
| 20260503231904 | 53 | 0 | 6.1 | 10.4 | 0.00 | 0.00 | 0.00 | 48 | 1009.9 |
| 20260503231404 | 53 | 0 | 7.8 | 17.4 | 0.00 | 0.00 | 0.00 | 47 | 1009.9 |
| 20260503230904 | 54 | 351 | 6.1 | 12.2 | 0.00 | 0.00 | 0.00 | 47 | 1009.9 |
| 20260503230404 | 54 | 0 | 8.7 | 15.6 | 0.00 | 0.00 | 0.00 | 46 | 1010.0 |
| 20260503225904 | 54 | 358 | 6.1 | 13.0 | 0.00 | 0.00 | 0.00 | 46 | 1009.9 |
| 20260503225404 | 54 | 340 | 7.8 | 15.6 | 0.00 | 0.00 | 0.00 | 46 | 1010.0 |
| 20260503224904 | 54 | 5 | 4.3 | 11.3 | 0.00 | 0.00 | 0.00 | 47 | 1009.9 |
| 20260503224404 | 54 | 356 | 8.7 | 15.6 | 0.00 | 0.00 | 0.00 | 46 | 1009.9 |
| 20260503223904 | 54 | 358 | 7.8 | 13.9 | 0.00 | 0.00 | 0.00 | 46 | 1009.9 |
| 20260503222903 | 54 | 354 | 8.7 | 14.8 | 0.00 | 0.00 | 0.00 | 46 | 1009.9 |
| 20260503222404 | 54 | 0 | 5.2 | 13.0 | 0.00 | 0.00 | 0.00 | 47 | 1009.9 |
| 20260503221903 | 54 | 352 | 7.8 | 14.8 | 0.00 | 0.00 | 0.00 | 46 | 1009.9 |
| 20260503221404 | 54 | 356 | 8.7 | 14.8 | 0.00 | 0.00 | 0.00 | 46 | 1009.9 |
| 20260503220904 | 55 | 353 | 9.6 | 20.0 | 0.00 | 0.00 | 0.00 | 46 | 1009.9 |
| 20260503220404 | 55 | 354 | 6.1 | 11.3 | 0.00 | 0.00 | 0.00 | 47 | 1009.9 |
| 20260503215404 | 54 | 10 | 7.8 | 13.9 | 0.00 | 0.00 | 0.00 | 47 | 1009.9 |
| 20260503214903 | 54 | 353 | 8.7 | 13.9 | 0.00 | 0.00 | 0.00 | 46 | 1009.9 |
| 20260503214404 | 55 | 358 | 9.6 | 13.9 | 0.00 | 0.00 | 0.00 | 46 | 1009.9 |
| 20260503213904 | 55 | 0 | 7.8 | 11.3 | 0.00 | 0.00 | 0.00 | 46 | 1009.9 |
| 20260503213404 | 55 | 352 | 9.6 | 15.6 | 0.00 | 0.00 | 0.00 | 46 | 1009.8 |
| 20260503212904 | 54 | 354 | 7.0 | 11.3 | 0.00 | 0.00 | 0.00 | 47 | 1009.8 |
| 20260503212404 | 54 | 0 | 10.4 | 15.6 | 0.00 | 0.00 | 0.00 | 46 | 1009.7 |
| 20260503211904 | 54 | 356 | 7.8 | 12.2 | 0.00 | 0.00 | 0.00 | 45 | 1009.7 |
| 20260503211403 | 54 | 0 | 8.7 | 14.8 | 0.00 | 0.00 | 0.00 | 46 | 1009.6 |
| 20260503210904 | 54 | 344 | 7.8 | 13.0 | 0.00 | 0.00 | 0.00 | 46 | 1009.8 |
| 20260503210404 | 54 | 338 | 7.0 | 13.0 | 0.00 | 0.00 | 0.00 | 46 | 1009.8 |
| 20260503205404 | 53 | 350 | 9.6 | 14.8 | 0.00 | 0.00 | 0.00 | 45 | 1009.7 |
| 20260503204904 | 53 | 0 | 8.7 | 17.4 | 0.00 | 0.00 | 0.00 | 45 | 1009.6 |
| 20260503203904 | 53 | 0 | 10.4 | 17.4 | 0.00 | 0.00 | 0.00 | 45 | 1009.7 |
| 20260503203404 | 53 | 346 | 7.8 | 13.0 | 0.00 | 0.00 | 0.00 | 46 | 1009.8 |
| 20260503202904 | 53 | 356 | 7.8 | 14.8 | 0.00 | 0.00 | 0.00 | 46 | 1009.7 |